Flag for U.S.A. Weather past 2 weeks in Wailuku, Hawaii, U.S.A.

Now
87 °F

Scattered clouds.


Feels Like: 89 °F
Forecast: 74 / 83 °F
Wind: 18 mph from Northeast

Location: Kahului Airport

Current Time: Oct 25, 2014 at 3:33:56 PM

Latest Report: Oct 25, 2014 at 2:54 PM


Visibility: 10 mi

Pressure: 29.95 "Hg

Humidity: 50%

Dew point: 66 °F

Location of WailukuLocation

Historic Weather in Wailuku — Graph

°F

Wailuku temperature yesterday

Maximum temperature yesterday: 87 °F (at 1:54 PM)
Minimum temperature yesterday: 68 °F (at 6:54 AM)
Average temperature yesterday: 78 °F

Past Weeks' High & Low Weather Summary

 TemperatureHumidityPressure
High90 °F (Oct 16, 12:54 PM)94% (Oct 19, 1:24 AM)30.08 "Hg (Oct 19, 1:24 AM)
Low66 °F (Oct 25, 6:54 AM)46% (Oct 11, 2:54 PM)29.85 "Hg (Oct 17, 2:54 PM)
Average79 °F73%29.98 "Hg
* Reported Oct 10 1:54 PM — Oct 25 1:54 PM, Wailuku, Weather by CustomWeather, © 2014

Note: Actual official high and low records may vary slightly from our data, if they occured in-between our weather recording intervals... More about our weather records

Advertising

Wailuku weather history for previous 24 hours

 ConditionsComfort  
Time TempWeatherWind HumidityBarometerVisibility
1:54 PM
Oct 25
87 °FScattered clouds.20 mph53%29.96 "Hg10 mi
12:54 PM86 °FScattered clouds.18 mph57%29.97 "Hg10 mi
11:54 AM89 °FScattered clouds.15 mph50%30.00 "Hg10 mi
10:54 AM88 °FScattered clouds.18 mph52%30.03 "Hg10 mi
9:54 AM85 °FPassing clouds.3 mph57%30.04 "Hg10 mi
8:54 AM81 °FPassing clouds.No wind56%30.05 "Hg10 mi
7:54 AM73 °FPassing clouds.No wind74%30.05 "Hg10 mi
6:54 AM66 °FPassing clouds.3 mph90%30.03 "Hg8 mi
5:54 AM67 °FClear.6 mph85%30.02 "Hg10 mi
4:54 AM67 °FClear.3 mph85%30.01 "Hg10 mi
3:54 AM72 °FClear.3 mph84%30.01 "Hg10 mi
2:54 AM68 °FClear.3 mph84%30.01 "Hg10 mi
1:54 AM76 °FClear.7 mph82%30.02 "Hg10 mi
12:54 AM76 °FClear.9 mph82%30.03 "Hg10 mi
11:54 PM
Oct 24
76 °FClear.7 mph82%30.05 "Hg10 mi
10:54 PM77 °FClear.14 mph79%30.06 "Hg10 mi
9:54 PM76 °FPassing clouds.10 mph77%30.06 "Hg10 mi
8:54 PM77 °FPassing clouds.12 mph74%30.06 "Hg10 mi
7:54 PM77 °FPassing clouds.10 mph69%30.06 "Hg10 mi
6:54 PM77 °FPassing clouds.14 mph62%30.03 "Hg10 mi
5:54 PM80 °FPassing clouds.15 mph62%30.00 "Hg10 mi
4:54 PM83 °FPassing clouds.17 mph57%29.98 "Hg10 mi
3:54 PM86 °FScattered clouds.18 mph51%29.98 "Hg10 mi
Weather by CustomWeather, © 2014

See weather overviewHow to use our weather pages